When you browse on this site, cookies collect data to enhance your experience and personalize the content and advertising you see.
Visit our Privacy Policy to learn more. By continuing to use the site, you agree to this use of cookies and data.
  • In Spain
  • List of Countries
  • For 7 days
  • Water Temperature
  • Weather Map
  • Weather Widgets
  • user-avatar
    Login

    Hourly Weather Perth

    Today, 22 February, Saturday

    Time Temperature Precipitation Wind Pressure Humidity
    00:00 +6°C° 1.2 mm 9 mps 742 mmHg 83%
    01:00 +6°C° 0.4 mm 8 mps 742 mmHg 82%
    02:00 +5°C° 0.4 mm 8 mps 742 mmHg 81%
    03:00 +4°C° 0.4 mm 8 mps 742 mmHg 80%
    04:00 +3°C° 0.1 mm 7 mps 743 mmHg 81%
    05:00 +2°C° 0.1 mm 7 mps 744 mmHg 82%
    06:00 0°C° 0.1 mm 7 mps 745 mmHg 83%
    07:00 0°C° 0.3 mm 7 mps 745 mmHg 82%
    08:00 0°C° 0.3 mm 8 mps 746 mmHg 81%
    09:00 0°C° 0.3 mm 8 mps 746 mmHg 80%
    10:00 0°C° 0.2 mm 9 mps 747 mmHg 75%
    11:00 +1°C° 0.2 mm 10 mps 748 mmHg 70%
    12:00 +1°C° 0.2 mm 11 mps 749 mmHg 64%
    13:00 0°C° 0.1 mm 12 mps 749 mmHg 67%
    14:00 0°C° 0.1 mm 12 mps 749 mmHg 69%
    15:00 0°C° 0.1 mm 12 mps 750 mmHg 71%
    16:00 0°C° 0.1 mm 10 mps 750 mmHg 74%
    17:00 0°C° 0.1 mm 9 mps 751 mmHg 77%
    18:00 -1°C° 0.1 mm 8 mps 752 mmHg 80%
    19:00 -1°C° 0 mm 7 mps 752 mmHg 80%
    20:00 -1°C° 0 mm 7 mps 753 mmHg 81%
    21:00 -1°C° 0 mm 6 mps 753 mmHg 81%
    22:00 -2°C° 0 mm 6 mps 753 mmHg 81%
    23:00 -2°C° 0 mm 6 mps 754 mmHg 82%

    Tomorrow, 23 February, Sunday

    Time Temperature Precipitation Wind Pressure Humidity
    00:00 -1°C° 0 mm 5 mps 754 mmHg 82%
    01:00 -1°C° 0 mm 5 mps 754 mmHg 84%
    02:00 -1°C° 0 mm 4 mps 753 mmHg 86%
    03:00 -1°C° 0 mm 4 mps 753 mmHg 88%
    04:00 -1°C° 0.1 mm 4 mps 753 mmHg 90%
    05:00 0°C° 0.1 mm 3 mps 752 mmHg 92%
    06:00 0°C° 0.1 mm 3 mps 752 mmHg 93%
    07:00 -1°C° 0 mm 4 mps 752 mmHg 90%
    08:00 0°C° 0 mm 5 mps 752 mmHg 86%
    09:00 -1°C° 0 mm 6 mps 752 mmHg 83%
    10:00 0°C° 0 mm 7 mps 753 mmHg 76%
    11:00 +1°C° 0 mm 8 mps 754 mmHg 69%
    12:00 +2°C° 0 mm 9 mps 755 mmHg 63%
    13:00 +2°C° 0 mm 8 mps 756 mmHg 64%
    14:00 +4°C° 0 mm 8 mps 757 mmHg 65%
    15:00 +4°C° 0 mm 7 mps 757 mmHg 67%
    16:00 +3°C° 0 mm 6 mps 759 mmHg 73%
    17:00 +3°C° 0 mm 4 mps 760 mmHg 78%
    18:00 +2°C° 0 mm 3 mps 761 mmHg 84%
    19:00 +2°C° 0 mm 2 mps 762 mmHg 86%
    20:00 +2°C° 0 mm 2 mps 762 mmHg 87%
    21:00 +2°C° 0 mm 1 mps 762 mmHg 88%
    22:00 +3°C° 0 mm 1 mps 762 mmHg 88%
    23:00 +3°C° 0 mm 1 mps 762 mmHg 87%

    Day after tomorrow, 24 February, Monday

    Time Temperature Precipitation Wind Pressure Humidity
    00:00 +3°C° 0 mm 1 mps 762 mmHg 87%
    01:00 +3°C° 0.3 mm 1 mps 761 mmHg 90%
    02:00 +2°C° 0.3 mm 2 mps 759 mmHg 93%
    03:00 +2°C° 0.3 mm 2 mps 758 mmHg 96%
    04:00 -1°C° 1.8 mm 4 mps 756 mmHg 97%
    05:00 -1°C° 1.8 mm 5 mps 754 mmHg 97%
    06:00 -2°C° 1.8 mm 7 mps 751 mmHg 98%
    07:00 -1°C° 1.2 mm 5 mps 749 mmHg 98%
    08:00 -1°C° 1.2 mm 4 mps 747 mmHg 98%
    09:00 +1°C° 1.2 mm 3 mps 745 mmHg 98%
    10:00 +1°C° 0.4 mm 4 mps 743 mmHg 97%
    11:00 +2°C° 0.4 mm 5 mps 741 mmHg 97%
    12:00 +3°C° 0.4 mm 6 mps 739 mmHg 97%
    13:00 +2°C° 0.6 mm 8 mps 738 mmHg 95%
    14:00 +1°C° 0.6 mm 10 mps 736 mmHg 94%
    15:00 0°C° 0.6 mm 12 mps 734 mmHg 93%
    16:00 0°C° 1.4 mm 12 mps 733 mmHg 93%
    17:00 +2°C° 1.4 mm 11 mps 732 mmHg 93%
    18:00 +2°C° 1.4 mm 11 mps 731 mmHg 92%
    19:00 +2°C° 0.8 mm 11 mps 732 mmHg 92%
    20:00 +2°C° 0.8 mm 11 mps 733 mmHg 91%
    21:00 +2°C° 0.8 mm 11 mps 734 mmHg 90%
    22:00 0°C° 0.3 mm 12 mps 735 mmHg 87%
    23:00 0°C° 0.3 mm 12 mps 736 mmHg 85%

    25 February, Tuesday

    Time Temperature Precipitation Wind Pressure Humidity
    00:00 0°C° 0.3 mm 12 mps 737 mmHg 82%
    01:00 0°C° 0 mm 12 mps 738 mmHg 81%
    02:00 +1°C° 0 mm 11 mps 739 mmHg 80%
    03:00 0°C° 0 mm 10 mps 739 mmHg 78%
    04:00 0°C° 0 mm 9 mps 740 mmHg 79%
    05:00 0°C° 0 mm 9 mps 740 mmHg 80%
    06:00 0°C° 0 mm 8 mps 740 mmHg 81%
    07:00 0°C° 0 mm 7 mps 741 mmHg 81%
    08:00 0°C° 0 mm 7 mps 741 mmHg 82%
    09:00 +1°C° 0 mm 6 mps 742 mmHg 83%
    10:00 +2°C° 0 mm 6 mps 742 mmHg 80%
    11:00 +2°C° 0 mm 6 mps 742 mmHg 77%
    12:00 +3°C° 0 mm 7 mps 742 mmHg 74%
    13:00 +3°C° 0 mm 6 mps 742 mmHg 73%
    14:00 +3°C° 0 mm 6 mps 741 mmHg 72%
    15:00 +3°C° 0 mm 5 mps 741 mmHg 71%
    16:00 +3°C° 0 mm 4 mps 741 mmHg 76%
    17:00 +2°C° 0 mm 3 mps 741 mmHg 81%
    18:00 +2°C° 0 mm 2 mps 741 mmHg 86%
    19:00 +1°C° 0 mm 2 mps 741 mmHg 88%
    20:00 +1°C° 0 mm 2 mps 741 mmHg 89%
    21:00 +1°C° 0 mm 2 mps 741 mmHg 90%
    22:00 0°C° 0 mm 3 mps 741 mmHg 90%
    23:00 -1°C° 0 mm 3 mps 741 mmHg 90%

    26 February, Wednesday

    Time Temperature Precipitation Wind Pressure Humidity
    00:00 -1°C° 0 mm 3 mps 742 mmHg 89%
    01:00 -1°C° 0 mm 3 mps 742 mmHg 88%
    02:00 -1°C° 0 mm 3 mps 743 mmHg 87%
    03:00 -2°C° 0 mm 4 mps 743 mmHg 86%
    04:00 -2°C° 0 mm 4 mps 744 mmHg 85%
    05:00 -1°C° 0 mm 4 mps 744 mmHg 84%
    06:00 -1°C° 0 mm 4 mps 745 mmHg 83%
    07:00 -1°C° 0 mm 4 mps 746 mmHg 79%
    08:00 0°C° 0 mm 4 mps 746 mmHg 76%
    09:00 +1°C° 0 mm 5 mps 747 mmHg 73%
    10:00 +2°C° 0 mm 6 mps 748 mmHg 70%
    11:00 +3°C° 0 mm 7 mps 749 mmHg 67%
    12:00 +2°C° 0 mm 8 mps 750 mmHg 64%
    13:00 +2°C° 0 mm 8 mps 750 mmHg 63%
    14:00 +2°C° 0 mm 8 mps 751 mmHg 62%
    15:00 +2°C° 0 mm 8 mps 752 mmHg 60%
    16:00 0°C° 0 mm 7 mps 752 mmHg 66%
    17:00 0°C° 0 mm 5 mps 752 mmHg 71%
    18:00 -1°C° 0 mm 4 mps 753 mmHg 77%
    19:00 0°C° 0 mm 3 mps 753 mmHg 80%
    20:00 -1°C° 0 mm 3 mps 753 mmHg 84%
    21:00 -1°C° 0 mm 2 mps 754 mmHg 88%
    22:00 -1°C° 0 mm 2 mps 753 mmHg 88%
    23:00 -1°C° 0 mm 2 mps 753 mmHg 88%

    27 February, Thursday

    Time Temperature Precipitation Wind Pressure Humidity
    00:00 -1°C° 0 mm 2 mps 753 mmHg 88%
    01:00 -1°C° 0 mm 2 mps 753 mmHg 87%
    02:00 -1°C° 0 mm 2 mps 753 mmHg 86%
    03:00 -1°C° 0 mm 2 mps 752 mmHg 86%
    04:00 +1°C° 0 mm 1 mps 752 mmHg 86%
    05:00 +1°C° 0 mm 1 mps 752 mmHg 86%
    06:00 +1°C° 0 mm 1 mps 751 mmHg 87%
    07:00 +2°C° 0 mm 1 mps 751 mmHg 86%
    08:00 +2°C° 0 mm 1 mps 751 mmHg 85%
    09:00 +3°C° 0 mm 1 mps 750 mmHg 85%
    10:00 +2°C° 0 mm 2 mps 749 mmHg 83%
    11:00 +2°C° 0 mm 3 mps 748 mmHg 81%
    12:00 +3°C° 0 mm 3 mps 746 mmHg 79%
    13:00 +1°C° 0.4 mm 4 mps 745 mmHg 85%
    14:00 +1°C° 0.4 mm 5 mps 743 mmHg 90%
    15:00 -1°C° 0.4 mm 6 mps 741 mmHg 96%
    16:00 0°C° 1.3 mm 5 mps 739 mmHg 97%
    17:00 0°C° 1.3 mm 5 mps 738 mmHg 97%
    18:00 0°C° 1.3 mm 4 mps 736 mmHg 98%
    19:00 +1°C° 0.4 mm 3 mps 735 mmHg 98%
    20:00 +3°C° 0.4 mm 2 mps 734 mmHg 98%
    21:00 +4°C° 0.4 mm 1 mps 733 mmHg 98%
    22:00 +3°C° 0.7 mm 2 mps 732 mmHg 97%
    23:00 +2°C° 0.7 mm 3 mps 732 mmHg 96%
    Show more